{"data":{"norad_id":58334,"epoch":"2026-09-21T22:35:09.430368Z","epoch_age_seconds":117462,"freshness":"FRESH","line1":"1 58334U 23174CG  26264.94108137  .00045467  00000+0  45609-3 0  9995","line2":"2 58334  97.3936   2.1022 0004513 121.6979 238.4721 15.65379026160926","mean_motion":15.65379026,"eccentricity":0.0004513,"inclination_deg":97.3936,"raan_deg":2.1022,"arg_perigee_deg":121.6979,"mean_anomaly_deg":238.4721,"bstar":0.00045609,"rev_number":16092,"period_min":91.990500452764,"perigee_km":369.10250211038,"apogee_km":375.19531016926,"semimajor_km":6750.2859061398,"source":"CELESTRAK","updated_at":"2026-09-22T09:00:26.583427Z"}}